This demonstration page uses our WeatherBlox Daily Observations layout. Learn more.

Left ArrowRight Arrow

39.01783, -85.05884

Hourly Observations for August 10, 2016

Temp ( °F °C ) Dew Point ( °F °C ) Humidity (%) Winds ( mph kmh ) Pressure ( in mb ) Visibility ( mi km ) Precip ( " mm )
12:52 am 00:52 Mostly Cloudy 76 24.4 73 22.8 91 91 N N/A 30.03 1017 10 16 N/A
1:52 am 01:52 Partly Cloudy 75 23.9 73 22.8 94 94 N N/A 30.03 1017 10 16 N/A
2:52 am 02:52 Mostly Cloudy 76 24.4 73 22.8 91 91 N N/A 30.03 1017 10 16 N/A
3:52 am 03:52 Cloudy 75 23.9 73 22.8 94 94 N N/A 30.02 1017 10 16 N/A
4:52 am 04:52 Cloudy 75 23.9 74 23.3 96 96 S 6 9 30.02 1017 10 16 N/A
5:52 am 05:52 Cloudy 76 24.4 73 22.8 91 91 SSW 5 7 30.03 1017 10 16 N/A
6:52 am 06:52 Mostly Cloudy 75 23.9 73 22.8 94 94 S 6 9 30.04 1017 10 16 N/A
7:52 am 07:52 Mostly Cloudy 77 25 74 23.3 90 90 S 6 9 30.06 1018 10 16 N/A
8:52 am 08:52 Mostly Cloudy 79 26.1 75 23.9 88 88 SSW 6 9 30.07 1018 10 16 N/A
9:52 am 09:52 Cloudy with Light Rain 79 26.1 75 23.9 88 88 S 8 13 30.09 1019 9 14 N/A
10:52 am 10:52 Mostly Cloudy with Light Rain 79 26.1 76 24.4 90 90 N N/A 30.10 1019 7 11 0.03 0.76
11:52 am 11:52 Mostly Cloudy 84 28.9 76 24.4 77 77 SSW 8 13 30.11 1020 10 16 0.01 0.25
12:45 pm 12:45 Mostly Cloudy with Thunderstorms 88 31 77 25 70 70 SSW 8 13 30.06 1018 10 16 N/A
12:52 pm 12:52 Mostly Cloudy with Thunderstorms 86 30 75 23.9 70 70 SSW 8 13 30.10 1019 10 16 N/A
1:38 pm 13:38 Mostly Cloudy 90 32 75 24 63 63 SSW 6 9 30.06 1018 10 16 N/A
1:52 pm 13:52 Mostly Cloudy 91 32.8 75 23.9 59 59 SSW 8 13 30.08 1019 10 16 N/A
2:52 pm 14:52 Mostly Cloudy 89 31.7 73 22.8 59 59 S 7 11 30.07 1018 10 16 N/A
3:52 pm 15:52 Mostly Cloudy 88 31.1 75 23.9 66 66 NNW 7 11 30.06 1018 10 16 N/A
4:52 pm 16:52 Mostly Cloudy 88 31.1 75 23.9 66 66 SW 8 13 30.06 1018 10 16 N/A
5:52 pm 17:52 Mostly Cloudy 85 29.4 77 25 77 77 N 8 13 30.06 1018 10 16 N/A
6:52 pm 18:52 Mostly Cloudy 85 29.4 77 25 77 77 N 7 11 30.04 1017 10 16 N/A
7:52 pm 19:52 Mostly Cloudy 83 28.3 75 23.9 77 77 NE 7 11 30.05 1018 10 16 N/A
8:52 pm 20:52 Mostly Cloudy 83 28.3 73 22.8 72 72 NE 8 13 30.05 1018 10 16 N/A
9:52 pm 21:52 Partly Cloudy 81 27.2 73 22.8 77 77 NNE 8 13 30.07 1018 10 16 N/A
10:52 pm 22:52 Mostly Clear 79 26.1 74 23.3 85 85 E 6 9 30.07 1018 10 16 N/A
11:52 pm 23:52 Mostly Clear 79 26.1 75 23.9 88 88 E 7 11 30.06 1018 10 16 N/A

Powered by AerisWeather